Retour au catalogue

KUIPER-00160

ActifCommunicationsLEO
NORAD 67765·PAYLOAD·🇺🇸 United States

Lancé Feb 12, 2026 depuis Guiana Space Centre

Loading…

Prochains Passages (prochaines 24 heures)

TLE

FraisSource: CelesTrak SupGP

Époque: Sep 14, 2026, 21:29 UTC

1 67765C 26030B   26257.89556713 -.01081600  00000+0 -12534+0 0  2576
2 67765  51.8985  29.0787 0011461 350.7564 335.9083 14.86028227    17

Suivez KUIPER-00160 en temps réel avec AllMySat

Download on the App Store